Home > Weather > Meilen > Past weeks

Flag for Switzerland Weather for the Past 2 Weeks in Meilen, Zurich, Switzerland

Now
45 °F

Cool.


Feels Like: 43 °F
Forecast: 33 / 65 °F
Wind: 5 mph from Northeast

Location: Zuerich-Fluntern

Current Time: May 4, 2016 at 10:30:08 AM

Latest Report: May 4, 2016 at 9:00 AM


Visibility: N/A

Pressure: 30.35 "Hg

Humidity: 83%

Dew Point: 40 °F

Location of MeilenLocation

Historic Weather in Meilen — Graph

°F

Meilen Temperature Yesterday

Maximum temperature yesterday: 58 °F (at 12:00 PM)
Minimum temperature yesterday: 46 °F (at 12:00 AM)
Average temperature yesterday: 50 °F

High & Low Weather Summary for the Past Weeks

 TemperatureHumidityPressure
High69 °F (Apr 21, 5:00 PM)97% (Apr 27, 4:00 AM)30.36 "Hg (Apr 27, 4:00 AM)
Low31 °F (Apr 28, 7:00 AM)35% (Apr 28, 3:00 PM)29.69 "Hg (Apr 26, 6:00 PM)
Average48 °F71%30.03 "Hg
* Reported Apr 19 1:00 PM — May 4 4:00 AM, Meilen, Weather by CustomWeather, © 2016

Note: Actual official high and low records may vary slightly from our data, if they occured in-between our weather recording intervals... More about our weather records

Advertising

Meilen Weather History for the Previous 24 Hours

Scroll right to see more
 ConditionsComfort  
Time TempWeatherWind HumidityBarometerVisibility
4:00 AM
Wed, May 4
41 °FQuite cool.1 mph94%30.36 "HgN/A
3:00 AM42 °FQuite cool.1 mph93%30.36 "HgN/A
2:00 AM42 °FQuite cool.1 mph93%30.36 "HgN/A
1:00 AM42 °FQuite cool.1 mph92%30.36 "HgN/A
10:00 PM
Tue, May 3
47 °FCool.2 mph81%30.32 "HgN/A
9:00 PM47 °FCool.1 mph83%30.29 "HgN/A
8:00 PM47 °FOvercast.6 mph81%30.27 "HgN/A
7:00 PM49 °FCool.5 mph73%30.25 "HgN/A
6:00 PM47 °FCool.6 mph82%30.24 "HgN/A
5:00 PM46 °FCool.7 mph88%30.22 "HgN/A
4:00 PM51 °FCool.13 mph63%30.17 "HgN/A
3:00 PM57 °FRefreshingly cool.10 mph46%30.11 "HgN/A
2:00 PM58 °FRefreshingly cool.10 mph52%30.10 "HgN/A
1:00 PM53 °FCool.6 mph81%30.14 "HgN/A
12:00 PM58 °FCool.6 mph67%30.13 "HgN/A
11:00 AM54 °FCool.5 mph70%30.15 "HgN/A
10:00 AM51 °FCool.5 mph78%30.16 "HgN/A
Weather by CustomWeather, © 2016

See weather overviewHow to use our weather pages